• In Portugal
  • List of Countries
  • For 7 days
  • Water Temperature
  • Satellite Maps
  • Weather Map
  • Weather Widgets
  • user-avatar
    Login

    Hourly Weather Adana

    Today, 21 February, Wednesday

    Time Temperature Precipitation Wind Pressure Humidity
    00:00 +12°C° 0.1 mm 3 mps 756 mmHg 69%
    01:00 +12°C° 0.1 mm 3 mps 756 mmHg 71%
    02:00 +12°C° 0.1 mm 3 mps 756 mmHg 73%
    03:00 +11°C° 0 mm 3 mps 756 mmHg 73%
    04:00 +11°C° 0 mm 3 mps 756 mmHg 74%
    05:00 +11°C° 0 mm 3 mps 756 mmHg 74%
    06:00 +12°C° 0 mm 3 mps 756 mmHg 72%
    07:00 +13°C° 0 mm 3 mps 756 mmHg 70%
    08:00 +13°C° 0 mm 3 mps 756 mmHg 68%
    09:00 +16°C° 0 mm 3 mps 756 mmHg 63%
    10:00 +17°C° 0 mm 3 mps 756 mmHg 59%
    11:00 +18°C° 0 mm 3 mps 756 mmHg 54%
    12:00 +18°C° 0.1 mm 3 mps 756 mmHg 54%
    13:00 +18°C° 0.1 mm 3 mps 755 mmHg 55%
    14:00 +19°C° 0.1 mm 2 mps 755 mmHg 55%
    15:00 +17°C° 0.3 mm 2 mps 755 mmHg 61%
    16:00 +16°C° 0.3 mm 2 mps 755 mmHg 67%
    17:00 +15°C° 0.3 mm 1 mps 755 mmHg 73%
    18:00 +15°C° 0.1 mm 2 mps 755 mmHg 76%
    19:00 +14°C° 0.1 mm 2 mps 756 mmHg 79%
    20:00 +13°C° 0.1 mm 2 mps 756 mmHg 82%
    21:00 +13°C° 0.1 mm 2 mps 756 mmHg 82%
    22:00 +12°C° 0.1 mm 2 mps 756 mmHg 81%
    23:00 +12°C° 0.1 mm 2 mps 756 mmHg 81%

    Tomorrow, 22 February, Thursday

    Time Temperature Precipitation Wind Pressure Humidity
    00:00 +10°C° 0 mm 2 mps 756 mmHg 80%
    01:00 +10°C° 0 mm 2 mps 757 mmHg 79%
    02:00 +10°C° 0 mm 2 mps 757 mmHg 78%
    03:00 +10°C° 0 mm 2 mps 757 mmHg 79%
    04:00 +9°C° 0 mm 2 mps 757 mmHg 79%
    05:00 +9°C° 0 mm 2 mps 757 mmHg 79%
    06:00 +10°C° 0 mm 2 mps 757 mmHg 76%
    07:00 +12°C° 0 mm 2 mps 757 mmHg 73%
    08:00 +12°C° 0 mm 3 mps 757 mmHg 70%
    09:00 +15°C° 0 mm 2 mps 757 mmHg 65%
    10:00 +16°C° 0 mm 2 mps 757 mmHg 60%
    11:00 +18°C° 0 mm 2 mps 756 mmHg 55%
    12:00 +18°C° 0 mm 2 mps 756 mmHg 55%
    13:00 +18°C° 0 mm 2 mps 756 mmHg 55%
    14:00 +19°C° 0 mm 2 mps 755 mmHg 54%
    15:00 +18°C° 0 mm 2 mps 755 mmHg 61%
    16:00 +18°C° 0 mm 1 mps 755 mmHg 67%
    17:00 +16°C° 0 mm 1 mps 755 mmHg 73%
    18:00 +15°C° 0 mm 1 mps 756 mmHg 77%
    19:00 +14°C° 0 mm 1 mps 756 mmHg 81%
    20:00 +13°C° 0 mm 1 mps 756 mmHg 84%
    21:00 +12°C° 0 mm 2 mps 756 mmHg 84%
    22:00 +12°C° 0 mm 2 mps 757 mmHg 84%
    23:00 +12°C° 0 mm 2 mps 757 mmHg 84%

    Day after tomorrow, 23 February, Friday

    Time Temperature Precipitation Wind Pressure Humidity
    00:00 +12°C° 0 mm 2 mps 757 mmHg 83%
    01:00 +10°C° 0 mm 2 mps 756 mmHg 81%
    02:00 +10°C° 0 mm 2 mps 756 mmHg 80%
    03:00 +10°C° 0 mm 2 mps 756 mmHg 79%
    04:00 +10°C° 0 mm 2 mps 756 mmHg 78%
    05:00 +10°C° 0 mm 2 mps 756 mmHg 76%
    06:00 +12°C° 0 mm 2 mps 756 mmHg 73%
    07:00 +13°C° 0 mm 2 mps 756 mmHg 70%
    08:00 +14°C° 0 mm 2 mps 757 mmHg 67%
    09:00 +15°C° 0 mm 2 mps 756 mmHg 62%
    10:00 +17°C° 0 mm 2 mps 756 mmHg 57%
    11:00 +18°C° 0 mm 2 mps 756 mmHg 52%
    12:00 +19°C° 0 mm 1 mps 755 mmHg 50%
    13:00 +20°C° 0 mm 1 mps 755 mmHg 49%
    14:00 +20°C° 0 mm 1 mps 754 mmHg 47%
    15:00 +19°C° 0 mm 1 mps 754 mmHg 52%
    16:00 +18°C° 0 mm 1 mps 754 mmHg 57%
    17:00 +16°C° 0 mm 1 mps 754 mmHg 61%
    18:00 +15°C° 0 mm 1 mps 755 mmHg 63%
    19:00 +14°C° 0 mm 1 mps 755 mmHg 65%
    20:00 +14°C° 0 mm 1 mps 755 mmHg 67%
    21:00 +13°C° 0 mm 1 mps 755 mmHg 68%
    22:00 +13°C° 0 mm 1 mps 755 mmHg 69%
    23:00 +12°C° 0 mm 1 mps 755 mmHg 69%

    24 February, Saturday

    Time Temperature Precipitation Wind Pressure Humidity
    00:00 +12°C° 0 mm 1 mps 755 mmHg 69%
    01:00 +12°C° 0 mm 1 mps 755 mmHg 69%
    02:00 +11°C° 0 mm 1 mps 755 mmHg 69%
    03:00 +11°C° 0 mm 1 mps 755 mmHg 68%
    04:00 +10°C° 0 mm 2 mps 755 mmHg 68%
    05:00 +10°C° 0 mm 2 mps 755 mmHg 67%
    06:00 +12°C° 0 mm 2 mps 756 mmHg 64%
    07:00 +13°C° 0 mm 1 mps 756 mmHg 62%
    08:00 +14°C° 0 mm 1 mps 756 mmHg 59%
    09:00 +16°C° 0 mm 1 mps 756 mmHg 55%
    10:00 +18°C° 0 mm 1 mps 756 mmHg 51%
    11:00 +20°C° 0 mm 1 mps 756 mmHg 47%
    12:00 +20°C° 0 mm 1 mps 756 mmHg 47%
    13:00 +19°C° 0 mm 2 mps 755 mmHg 47%
    14:00 +20°C° 0 mm 2 mps 755 mmHg 47%
    15:00 +18°C° 0 mm 2 mps 755 mmHg 54%
    16:00 +17°C° 0 mm 2 mps 755 mmHg 61%
    17:00 +16°C° 0 mm 2 mps 755 mmHg 67%
    18:00 +15°C° 0 mm 2 mps 755 mmHg 72%
    19:00 +13°C° 0 mm 1 mps 755 mmHg 77%
    20:00 +12°C° 0 mm 1 mps 756 mmHg 82%
    21:00 +12°C° 0 mm 1 mps 756 mmHg 83%
    22:00 +12°C° 0 mm 1 mps 756 mmHg 84%
    23:00 +11°C° 0 mm 1 mps 756 mmHg 84%

    25 February, Sunday

    Time Temperature Precipitation Wind Pressure Humidity
    00:00 +11°C° 0 mm 1 mps 756 mmHg 84%
    01:00 +11°C° 0 mm 1 mps 756 mmHg 83%
    02:00 +10°C° 0 mm 2 mps 755 mmHg 83%
    03:00 +10°C° 0 mm 2 mps 756 mmHg 83%
    04:00 +10°C° 0 mm 2 mps 756 mmHg 82%
    05:00 +9°C° 0 mm 2 mps 756 mmHg 82%
    06:00 +10°C° 0.1 mm 2 mps 756 mmHg 80%
    07:00 +12°C° 0.1 mm 2 mps 756 mmHg 78%
    08:00 +12°C° 0.1 mm 2 mps 756 mmHg 76%
    09:00 +13°C° 0.3 mm 2 mps 755 mmHg 75%
    10:00 +14°C° 0.3 mm 2 mps 755 mmHg 75%
    11:00 +14°C° 0.3 mm 2 mps 755 mmHg 75%
    12:00 +15°C° 0.4 mm 2 mps 754 mmHg 75%
    13:00 +15°C° 0.4 mm 2 mps 754 mmHg 76%
    14:00 +15°C° 0.4 mm 2 mps 753 mmHg 77%
    15:00 +15°C° 0.4 mm 2 mps 753 mmHg 80%
    16:00 +14°C° 0.4 mm 2 mps 753 mmHg 83%
    17:00 +14°C° 0.4 mm 2 mps 753 mmHg 86%
    18:00 +13°C° 0.3 mm 2 mps 753 mmHg 89%
    19:00 +12°C° 0.3 mm 2 mps 753 mmHg 91%
    20:00 +12°C° 0.3 mm 2 mps 753 mmHg 93%
    21:00 +12°C° 0.3 mm 2 mps 753 mmHg 92%
    22:00 +12°C° 0.3 mm 2 mps 753 mmHg 92%
    23:00 +12°C° 0.3 mm 2 mps 752 mmHg 91%

    26 February, Monday

    Time Temperature Precipitation Wind Pressure Humidity
    00:00 +10°C° 0.1 mm 2 mps 752 mmHg 90%
    01:00 +10°C° 0.1 mm 2 mps 752 mmHg 89%
    02:00 +10°C° 0.1 mm 2 mps 752 mmHg 89%
    03:00 +10°C° 0.1 mm 2 mps 752 mmHg 88%
    04:00 +10°C° 0.1 mm 2 mps 752 mmHg 88%
    05:00 +10°C° 0.1 mm 2 mps 752 mmHg 87%
    06:00 +10°C° 0 mm 2 mps 752 mmHg 83%
    07:00 +12°C° 0 mm 2 mps 753 mmHg 80%
    08:00 +13°C° 0 mm 2 mps 753 mmHg 76%
    09:00 +14°C° 0.1 mm 2 mps 753 mmHg 71%
    10:00 +15°C° 0.1 mm 2 mps 752 mmHg 66%
    11:00 +16°C° 0.1 mm 2 mps 752 mmHg 62%
    12:00 +17°C° 0.2 mm 2 mps 752 mmHg 61%
    13:00 +17°C° 0.2 mm 2 mps 752 mmHg 60%
    14:00 +17°C° 0.2 mm 2 mps 751 mmHg 60%
    15:00 +17°C° 0.2 mm 2 mps 751 mmHg 66%
    16:00 +16°C° 0.2 mm 2 mps 752 mmHg 72%
    17:00 +15°C° 0.2 mm 2 mps 752 mmHg 78%
    18:00 +14°C° 0.2 mm 2 mps 752 mmHg 82%
    19:00 +13°C° 0.2 mm 2 mps 752 mmHg 86%
    20:00 +12°C° 0.2 mm 2 mps 752 mmHg 90%
    21:00 +12°C° 0.2 mm 2 mps 752 mmHg 90%
    22:00 +10°C° 0.2 mm 2 mps 752 mmHg 90%
    23:00 +10°C° 0.2 mm 2 mps 752 mmHg 91%
    Show more